Location: Arlington
(40.6323°N, 74.1651°W)
Time: 16:25:18
(UTC+00:00)

Cosmos 1452 Rocket - Pass Details

Date: 22 November 2019
Orbit: 767 x 775 km, 74.1° (Epoch: 11 December)

Event Time Altitude Azimuth Distance (km) Brightness Sun altitude
Rises 22:32:45 0° 351° (N) 3,263 6.7 -11.2°
Reaches altitude 10° 22:35:30 10° 3° (N) 2,331 5.8 -11.7°
Maximum altitude 22:39:58 27° 61° (ENE) 1,460 4.4 -12.5°
Drops below altitude 10° 22:44:24 10° 118° (ESE) 2,318 5.6 -13.3°
Enters shadow 22:45:52 - 126° (SE) 2,803 6.1 -13.6°
